THOR ABLESTAR DEB, 48821

Orbit data source: Space-Track

THOR ABLESTAR DEB, 48821 is space debris in LEO originally from a launch on Thu, 29 Jun 1961 UTC launched from the Air Force Eastern Test Range (AFETR). Debris objects in space refer to the collection of defunct objects orbiting the Earth. Examples of debris include non-operational satellites, rocket bodies, and fragments generated from explosions, collisions, or faulty payload assembly.

Loading next visibility...
Identifier
48821, 1961-015MZ
Orbit
LEO
Country
Flag of USUS
Related business
Manufacturer
Unknown
Mission
Spacecraft
Bus & Motor
Unknown
Mass
Unknown
Launch date (UTC)
1961-06-29 (64 years ago)
Launch vehicle
Unknown
Launch site
Air Force Eastern Test Range (AFETR)
Object type
Payload
Rocket body
Debris
Shape & HBR
Unknown shape, 0.1 m
Radar Cross Section
Small (<0.1 m²)

Expand to show TLE details & history
Last TLE update: 1 day ago

TLE from 1 day ago
0 THOR ABLESTAR DEB
1 48821U 61015MZ  25298.37231321 -.00000095  00000-0 -11225-3 0  9994
2 48821  67.9341 183.6093 0516424 251.2468 103.1871 12.77302345524438
Epoch: 2025-10-25T08:56Z
TLE epoch observation values (Epoch: 2025-10-25T08:56:07.861Z)
Latitude
0.00006°
Longitude
15.57276°
Altitude
1,464.635 km
Speed
7.08 km/s
True Right ascension
12h 14m 26s
True Declination
0° 00' 00"
Sunlit
Object was in daylight at epoch
Visualization orbit readout
Latitude
Unknown
Longitude
Unknown
Altitude
Unknown
Speed
Unknown
Apparent Right ascension
Unknown
Apparent Declination
Unknown
Sunlit
N/A
Visualization observer readout
Local Sidereal Time
05:05:26
Azimuth
Unknown
Elevation
Unknown
Doppler factor
Unknown
Orbital elements
Apogee altitude
1,749.827 km
Perigee altitude
951.556 km
Semi-major axis
7,728.828 km
Eccentricity
0.05164
Inclination
67.9341°
RAAN
183.6093°
Arg. of periapsis
251.2468°
True anomaly
108.85592°
Mean anomaly
103.1871°
Eccentric anomaly
106.03093°
Mean motion
3.19428 °/min
Orbital period
112.7 mins
BSTAR
-0.00011225
Loading maneuver chart data...
Computing Atmospheric mass density...

Documentation

Showing up to 5 results
|